KG6SIB Weather Reports


Display with metric or nautical units.
time (UTC)temp
F
wind
direction
speed
MPH
gust
MPH
rain 1hr
in
rain 24hr
in
rain mn
in
humidity
%
barometer
mb
20260509233149 80 234 0.0 10.0 0.00 0.00 0.00 43 1013.9
20260509232149 81 244 9.0 10.0 0.00 0.00 0.00 42 1014.1
20260509231649 81 227 0.0 9.0 0.00 0.00 0.00 43 1014.1
20260509230149 81 260 6.0 11.0 0.00 0.00 0.00 43 1014.1
20260509225648 81 239 0.0 10.0 0.00 0.00 0.00 42 1014.1
20260509224648 81 211 3.0 9.0 0.00 0.00 0.00 43 1014.3
20260509224148 81 184 2.0 11.0 0.00 0.00 0.00 41 1014.3
20260509223648 82 248 0.0 11.0 0.00 0.00 0.00 40 1014.4
20260509223149 82 227 2.0 11.0 0.00 0.00 0.00 40 1014.4
20260509222648 83 225 2.0 11.0 0.00 0.00 0.00 39 1014.6
20260509222148 83 315 2.0 10.0 0.00 0.00 0.00 40 1014.7
20260509221648 83 232 1.0 10.0 0.00 0.00 0.00 37 1014.5
20260509221148 83 231 3.0 11.0 0.00 0.00 0.00 37 1014.5
20260509220648 83 347 2.0 11.0 0.00 0.00 0.00 36 1014.5
20260509220148 84 234 1.0 9.0 0.00 0.00 0.00 37 1014.7
20260509215148 84 252 4.0 10.0 0.00 0.00 0.00 32 1014.7
20260509214648 84 232 1.0 10.0 0.00 0.00 0.00 33 1014.6
20260509214148 84 235 2.0 9.0 0.00 0.00 0.00 32 1014.6
20260509213148 84 227 2.0 11.0 0.00 0.00 0.00 31 1014.6
20260509212648 84 188 2.0 11.0 0.00 0.00 0.00 31 1014.7
20260509212147 85 254 1.0 8.0 0.00 0.00 0.00 33 1015.1
20260509211648 84 319 2.0 8.0 0.00 0.00 0.00 31 1014.8
20260509210148 84 229 9.0 12.0 0.00 0.00 0.00 30 1015.0
20260509205648 84 220 7.0 11.0 0.00 0.00 0.00 31 1015.0
20260509205147 84 200 4.0 10.0 0.00 0.00 0.00 30 1015.1
20260509204647 84 224 5.0 10.0 0.00 0.00 0.00 32 1015.1
20260509204148 84 193 2.0 10.0 0.00 0.00 0.00 29 1015.2
20260509203647 84 338 3.0 10.0 0.00 0.00 0.00 29 1015.2
20260509203147 84 242 3.0 10.0 0.00 0.00 0.00 27 1015.2
20260509202647 84 234 2.0 11.0 0.00 0.00 0.00 30 1015.2
20260509202147 85 237 5.0 11.0 0.00 0.00 0.00 28 1015.4
20260509201647 85 290 5.0 10.0 0.00 0.00 0.00 27 1015.4
20260509200647 85 235 2.0 10.0 0.00 0.00 0.00 30 1015.5
20260509200147 85 251 3.0 10.0 0.00 0.00 0.00 29 1015.5
20260509195647 85 244 0.0 9.0 0.00 0.00 0.00 29 1015.4
20260509193146 83 284 2.0 8.0 0.00 0.00 0.00 31 1015.3
20260509192647 83 235 4.0 7.0 0.00 0.00 0.00 30 1015.2
20260509192146 83 244 0.0 9.0 0.00 0.00 0.00 30 1015.4
20260509191646 83 232 3.0 9.0 0.00 0.00 0.00 31 1015.5
20260509191147 83 257 2.0 6.0 0.00 0.00 0.00 30 1015.5
20260509190647 83 311 2.0 10.0 0.00 0.00 0.00 31 1015.6
20260509185146 83 234 3.0 11.0 0.00 0.00 0.00 31 1015.6
20260509184646 83 223 2.0 11.0 0.00 0.00 0.00 32 1015.6
20260509184146 82 254 5.0 9.0 0.00 0.00 0.00 30 1015.6
20260509183646 82 250 7.0 9.0 0.00 0.00 0.00 29 1015.6
20260509183146 82 250 4.0 9.0 0.00 0.00 0.00 27 1015.6
20260509182646 83 254 0.0 7.0 0.00 0.00 0.00 27 1015.6
20260509182146 82 202 3.0 10.0 0.00 0.00 0.00 29 1015.7
20260509181146 82 243 5.0 8.0 0.00 0.00 0.00 30 1015.9
20260509180646 82 232 3.0 8.0 0.00 0.00 0.00 29 1015.9
20260509175645 81 251 5.0 11.0 0.00 0.00 0.00 31 1015.9
20260509175145 81 273 7.0 11.0 0.00 0.00 0.00 31 1015.9
20260509174645 80 242 5.0 11.0 0.00 0.00 0.00 30 1015.7
20260509174145 81 242 4.0 8.0 0.00 0.00 0.00 29 1015.9
20260509173645 81 278 6.0 8.0 0.00 0.00 0.00 31 1015.9
20260509173145 80 5 0.0 7.0 0.00 0.00 0.00 32 1015.7
20260509172646 80 265 4.0 7.0 0.00 0.00 0.00 29 1015.7
20260509172145 80 226 3.0 7.0 0.00 0.00 0.00 30 1015.7
20260509171645 80 225 6.0 7.0 0.00 0.00 0.00 29 1015.6
20260509171145 79 184 0.0 6.0 0.00 0.00 0.00 32 1015.5
20260509170645 79 210 1.0 6.0 0.00 0.00 0.00 33 1015.4
20260509170145 79 190 0.0 5.0 0.00 0.00 0.00 32 1015.4
20260509165145 78 188 2.0 6.0 0.00 0.00 0.00 33 1015.6
20260509164145 77 217 1.0 6.0 0.00 0.00 0.00 36 1015.4
20260509163645 77 252 0.0 7.0 0.00 0.00 0.00 34 1015.3
20260509162644 76 225 2.0 5.0 0.00 0.00 0.00 37 1015.3
20260509161645 75 240 1.0 11.0 0.00 0.00 0.00 38 1015.1
20260509160645 74 263 0.0 6.0 0.00 0.00 0.00 37 1015.0
20260509160144 74 201 0.0 0.0 0.00 0.00 0.00 40 1014.9
20260509155645 73 201 0.0 0.0 0.00 0.00 0.00 40 1015.1
20260509154644 72 91 0.0 0.0 0.00 0.00 0.00 40 1015.1
20260509153644 70 84 0.0 0.0 0.00 0.00 0.00 48 1015.0
20260509152644 68 84 0.0 0.0 0.00 0.00 0.00 48 1014.8
20260509152144 68 84 0.0 0.0 0.00 0.00 0.00 52 1014.8
20260509151644 67 83 0.0 0.0 0.00 0.00 0.00 50 1014.6
20260509151144 66 82 0.0 0.0 0.00 0.00 0.00 56 1014.6
20260509150644 66 82 0.0 0.0 0.00 0.00 0.00 60 1014.7
20260509150143 65 82 0.0 2.0 0.00 0.00 0.00 62 1014.5
20260509145644 64 82 0.0 3.0 0.00 0.00 0.00 59 1015.1
20260509144644 61 94 2.0 5.0 0.00 0.00 0.00 61 1015.0
20260509144144 60 88 1.0 7.0 0.00 0.00 0.00 62 1014.8
20260509143643 59 84 5.0 7.0 0.00 0.00 0.00 63 1014.7
20260509143144 58 78 1.0 7.0 0.00 0.00 0.00 63 1014.5
20260509142643 57 75 3.0 7.0 0.00 0.00 0.00 65 1014.5
20260509141643 55 50 5.0 7.0 0.00 0.00 0.00 68 1014.2
20260509141143 54 70 3.0 7.0 0.00 0.00 0.00 68 1014.0
20260509140643 53 67 2.0 7.0 0.00 0.00 0.00 69 1013.9
20260509135643 51 64 4.0 7.0 0.00 0.00 0.00 72 1014.2
20260509135143 50 74 3.0 8.0 0.00 0.00 0.00 72 1014.1
20260509134143 48 66 4.0 7.0 0.00 0.00 0.00 73 1014.0
20260509133642 48 76 5.0 7.0 0.00 0.00 0.00 73 1013.9
20260509133142 47 71 4.0 8.0 0.00 0.00 0.00 72 1013.5
20260509132643 47 59 4.0 8.0 0.00 0.00 0.00 72 1013.6
20260509132142 47 38 4.0 8.0 0.00 0.00 0.00 71 1013.6
20260509131643 47 66 5.0 8.0 0.00 0.00 0.00 71 1013.6
20260509131142 47 58 4.0 9.0 0.00 0.00 0.00 69 1013.5
20260509130643 48 55 5.0 9.0 0.00 0.00 0.00 68 1013.8
20260509125642 48 76 3.0 8.0 0.00 0.00 0.00 67 1014.3
20260509125142 48 42 4.0 8.0 0.00 0.00 0.00 68 1014.4
20260509124142 48 70 5.0 8.0 0.00 0.00 0.00 67 1014.4
20260509123642 48 31 4.0 7.0 0.00 0.00 0.00 67 1014.3
20260509123142 48 53 4.0 7.0 0.00 0.00 0.00 68 1014.3
20260509122642 48 57 5.0 7.0 0.00 0.00 0.00 68 1014.3
20260509122142 47 53 5.0 7.0 0.00 0.00 0.00 68 1014.0
20260509121642 47 57 4.0 8.0 0.00 0.00 0.00 67 1014.1
20260509120641 47 81 4.0 7.0 0.00 0.00 0.00 69 1014.0
20260509120141 47 69 5.0 7.0 0.00 0.00 0.00 68 1014.2
20260509115642 47 73 4.0 9.0 0.00 0.00 0.00 70 1014.7
20260509115141 47 30 5.0 9.0 0.00 0.00 0.00 70 1014.8
20260509114641 47 75 5.0 8.0 0.00 0.00 0.00 71 1014.8
20260509113641 47 74 7.0 7.0 0.00 0.00 0.00 71 1014.9
20260509113141 47 62 3.0 6.0 0.00 0.00 0.00 71 1014.9
20260509112642 47 58 5.0 6.0 0.00 0.00 0.00 69 1014.9
20260509112141 47 32 6.0 7.0 0.00 0.00 0.00 69 1014.9
20260509111641 47 58 4.0 8.0 0.00 0.00 0.00 69 1014.9
20260509111141 47 29 6.0 8.0 0.00 0.00 0.00 69 1014.8
20260509110641 47 59 4.0 8.0 0.00 0.00 0.00 70 1014.8
20260509110141 47 38 5.0 8.0 0.00 0.00 0.00 69 1014.8
20260509105641 47 66 5.0 8.0 0.00 0.00 0.00 69 1015.2
20260509105141 47 35 4.0 8.0 0.00 0.00 0.00 70 1015.3
20260509104641 47 56 5.0 8.0 0.00 0.00 0.00 68 1015.3
20260509104141 48 48 4.0 8.0 0.00 0.00 0.00 68 1015.6
20260509103641 48 78 5.0 8.0 0.00 0.00 0.00 68 1015.5
20260509103141 48 49 5.0 7.0 0.00 0.00 0.00 68 1015.5
20260509102640 48 74 4.0 7.0 0.00 0.00 0.00 69 1015.6
20260509102141 48 69 5.0 7.0 0.00 0.00 0.00 69 1015.7
20260509101640 48 92 4.0 9.0 0.00 0.00 0.00 69 1015.8
20260509101141 48 48 4.0 9.0 0.00 0.00 0.00 70 1015.7
20260509100641 47 74 5.0 8.0 0.00 0.00 0.00 70 1015.6
20260509100141 47 59 4.0 7.0 0.00 0.00 0.00 71 1015.6
20260509095640 47 65 5.0 8.0 0.00 0.00 0.00 71 1015.8
20260509095140 47 51 5.0 8.0 0.00 0.00 0.00 70 1015.7
20260509094640 47 76 4.0 8.0 0.00 0.00 0.00 69 1015.8
20260509094140 48 51 6.0 7.0 0.00 0.00 0.00 70 1015.8
20260509093640 48 30 4.0 7.0 0.00 0.00 0.00 70 1015.7
20260509092640 48 50 6.0 8.0 0.00 0.00 0.00 70 1015.9
20260509092140 48 67 6.0 8.0 0.00 0.00 0.00 70 1015.9
20260509091640 48 71 8.0 8.0 0.00 0.00 0.00 70 1016.0
20260509091140 48 34 5.0 8.0 0.00 0.00 0.00 70 1016.0
20260509090640 47 74 4.0 8.0 0.00 0.00 0.00 71 1016.0
20260509090139 47 82 4.0 8.0 0.00 0.00 0.00 71 1016.0
20260509085640 47 62 4.0 7.0 0.00 0.00 0.00 71 1016.1
20260509085140 48 67 3.0 9.0 0.00 0.00 0.00 72 1016.2
20260509084140 47 74 7.0 9.0 0.00 0.00 0.00 73 1016.3
20260509083640 47 54 5.0 9.0 0.00 0.00 0.00 73 1016.3
20260509083140 48 55 4.0 7.0 0.00 0.00 0.00 73 1016.4
20260509082639 48 51 4.0 7.0 0.00 0.00 0.00 72 1016.3
20260509082139 48 52 4.0 7.0 0.00 0.00 0.00 71 1016.4
20260509081639 48 73 4.0 6.0 0.00 0.00 0.00 71 1016.3
20260509081139 48 70 3.0 8.0 0.00 0.00 0.00 71 1016.3
20260509080139 48 69 5.0 7.0 0.00 0.00 0.00 71 1016.5
20260509075639 48 76 5.0 8.0 0.00 0.00 0.00 71 1016.5
20260509075139 48 78 7.0 8.0 0.00 0.00 0.00 72 1016.5
20260509074639 48 89 5.0 7.0 0.00 0.00 0.00 72 1016.6
20260509073639 49 67 4.0 8.0 0.00 0.00 0.00 72 1016.7
20260509073139 49 74 3.0 7.0 0.00 0.00 0.00 73 1016.7
20260509072638 49 63 5.0 9.0 0.00 0.00 0.00 73 1016.7
20260509072138 49 46 5.0 9.0 0.00 0.00 0.00 73 1016.6
20260509071638 49 37 6.0 9.0 0.00 0.00 0.00 74 1016.7
20260509071139 49 49 4.0 9.0 0.00 0.00 0.00 74 1016.7
20260509070139 48 45 5.0 6.0 0.00 0.00 0.00 74 1016.8
20260509065639 48 48 5.0 6.0 0.00 0.00 0.00 74 1016.8
20260509065139 48 48 5.0 8.0 0.00 0.00 0.00 74 1016.8
20260509064639 48 68 4.0 8.0 0.00 0.00 0.00 73 1016.7
20260509063638 48 59 4.0 8.0 0.00 0.00 0.00 71 1016.8
20260509063138 48 46 5.0 7.0 0.00 0.00 0.00 70 1016.6
20260509062638 48 63 4.0 8.0 0.00 0.00 0.00 69 1016.6
20260509062138 49 57 5.0 8.0 0.00 0.00 0.00 68 1016.8
20260509061638 49 59 7.0 8.0 0.00 0.00 0.00 66 1016.9
20260509061138 49 53 5.0 8.0 0.00 0.00 0.00 67 1016.9
20260509060638 49 48 4.0 8.0 0.00 0.00 0.00 66 1017.0
20260509060138 49 38 5.0 8.0 0.00 0.00 0.00 65 1017.0
20260509055638 49 50 5.0 8.0 0.00 0.00 0.00 65 1016.6
20260509055137 49 55 5.0 8.0 0.00 0.00 0.00 64 1016.6
20260509054138 49 61 5.0 8.0 0.00 0.00 0.00 63 1016.5
20260509053637 50 53 5.0 7.0 0.00 0.00 0.00 63 1016.9
20260509053138 50 40 1.0 6.0 0.00 0.00 0.00 66 1016.9
20260509052638 50 42 4.0 6.0 0.00 0.00 0.00 64 1016.8
20260509052138 50 51 3.0 6.0 0.00 0.00 0.00 64 1016.8
20260509051637 50 71 6.0 6.0 0.00 0.00 0.00 62 1016.9
20260509051137 50 46 3.0 8.0 0.00 0.00 0.00 64 1016.9
20260509050138 50 55 4.0 6.0 0.00 0.00 0.00 63 1016.8
20260509045637 50 30 3.0 6.0 0.00 0.00 0.00 63 1016.2
20260509045137 50 30 4.0 6.0 0.00 0.00 0.00 62 1016.2
20260509044137 50 49 3.0 5.0 0.00 0.00 0.00 66 1016.3
20260509043637 51 64 3.0 5.0 0.00 0.00 0.00 66 1016.4
20260509043137 51 49 4.0 5.0 0.00 0.00 0.00 68 1016.5
20260509042637 52 62 2.0 5.0 0.00 0.00 0.00 68 1016.4
20260509042137 52 56 4.0 5.0 0.00 0.00 0.00 71 1016.4
20260509041637 52 55 3.0 6.0 0.00 0.00 0.00 73 1016.4
20260509035636 54 58 4.0 7.0 0.00 0.00 0.00 77 1015.8
20260509035137 55 71 1.0 6.0 0.00 0.00 0.00 78 1015.7
20260509034636 56 46 4.0 6.0 0.00 0.00 0.00 78 1016.0
20260509033136 57 47 4.0 6.0 0.00 0.00 0.00 79 1016.0
20260509032636 58 28 4.0 5.0 0.00 0.00 0.00 78 1016.1
20260509032137 59 5 4.0 4.0 0.00 0.00 0.00 77 1016.2
20260509031636 60 42 4.0 4.0 0.00 0.00 0.00 76 1016.5
20260509031136 60 215 0.0 3.0 0.00 0.00 0.00 76 1016.4
20260509030636 61 215 0.0 4.0 0.00 0.00 0.00 77 1016.3
20260509025636 62 211 3.0 4.0 0.00 0.00 0.00 75 1015.5
20260509025136 62 211 3.0 3.0 0.00 0.00 0.00 75 1015.4
20260509024636 63 211 2.0 3.0 0.00 0.00 0.00 74 1015.5
20260509024136 63 205 0.0 0.0 0.00 0.00 0.00 74 1015.4
20260509023636 64 205 0.0 0.0 0.00 0.00 0.00 72 1015.4
20260509023136 65 205 0.0 2.0 0.00 0.00 0.00 71 1015.6
20260509022636 65 204 0.0 2.0 0.00 0.00 0.00 70 1015.6
20260509022135 66 203 0.0 3.0 0.00 0.00 0.00 69 1015.5
20260509021636 66 204 2.0 3.0 0.00 0.00 0.00 69 1015.5
20260509021135 67 239 0.0 3.0 0.00 0.00 0.00 68 1015.7
20260509020635 68 239 2.0 3.0 0.00 0.00 0.00 67 1015.6
20260509020136 68 240 2.0 2.0 0.00 0.00 0.00 65 1015.6
20260509015635 69 240 0.0 4.0 0.00 0.00 0.00 64 1014.7
20260509015135 69 241 1.0 4.0 0.00 0.00 0.00 63 1014.7
20260509014635 70 246 1.0 4.0 0.00 0.00 0.00 62 1014.7
20260509014135 70 247 0.0 4.0 0.00 0.00 0.00 61 1014.8
20260509013635 71 244 1.0 4.0 0.00 0.00 0.00 60 1015.0
20260509012635 71 239 2.0 7.0 0.00 0.00 0.00 58 1015.0
20260509011635 72 229 0.0 9.0 0.00 0.00 0.00 56 1015.0
20260509011135 73 224 6.0 10.0 0.00 0.00 0.00 55 1015.2
20260509010635 73 220 3.0 10.0 0.00 0.00 0.00 55 1015.2
20260509010135 74 256 2.0 8.0 0.00 0.00 0.00 54 1015.3
20260509005635 74 236 3.0 11.0 0.00 0.00 0.00 53 1014.8
20260509005135 75 256 3.0 11.0 0.00 0.00 0.00 51 1014.8
20260509004635 75 220 3.0 13.0 0.00 0.00 0.00 50 1014.8
20260509004134 76 244 1.0 13.0 0.00 0.00 0.00 49 1015.1
20260509003635 76 229 4.0 13.0 0.00 0.00 0.00 49 1015.0
20260509003135 77 261 10.0 13.0 0.00 0.00 0.00 47 1015.0
20260509002634 77 205 3.0 10.0 0.00 0.00 0.00 45 1015.1
20260509002135 78 216 4.0 10.0 0.00 0.00 0.00 45 1015.3
20260509001635 78 213 6.0 8.0 0.00 0.00 0.00 44 1015.4
20260509000634 79 227 5.0 9.0 0.00 0.00 0.00 40 1015.3
20260508235635 79 221 1.0 14.0 0.00 0.00 0.00 39 1015.4
20260508235134 80 192 4.0 14.0 0.00 0.00 0.00 39 1015.7
20260508234634 80 241 9.0 13.0 0.00 0.00 0.00 38 1015.7
20260508234134 80 212 6.0 13.0 0.00 0.00 0.00 38 1015.7
20260508233634 81 214 7.0 13.0 0.00 0.00 0.00 36 1015.7